sat.trackr.live / text

‹ back to catalog

STARLINK-31516

NORAD 59221 · 2024-046W

PAYLOAD ACTIVE UNKNOWN

§ Identity

Operator
Country
US
Launch date
2024-03-11
Launch site
AFWTR
Launch vehicle
Mass (kg)
RCS (m²)

Purposes: comms

External: N2YO · Heavens-Above · Gunter

§ Orbital elements

Epoch: 2026-05-25T00:45:10.634112Z

Period
93.85 min
Inclination
53.1599°
Eccentricity
0.0001259
Mean motion
15.34386120 rev/d
Perigee alt
461.9 km
Apogee alt
463.6 km
Semi-major
6,840.9 km
B*
3.3557e-5
RAAN
159.6171°
Arg perigee
87.1297°
Mean anomaly
272.9849°
Rev number
12,474

§ Raw data

STARLINK-315161 59221U 24046W   26145.03137308  .00000757  00000+0  33557-4 0  99932 59221  53.1599 159.6171 0001259  87.1297 272.9849 15.34386120124746

JSON: /api/v1/satellites/59221 · /tle

For live sub-satellite position, see the globe view (requires WebGL).

§ Visibility from observer

Set your observer location to see the next 7 days of passes ≥ 10°. The values pass through the URL so the page stays shareable.

No JS? Fill the form by hand. The geolocation button needs JavaScript.